Location: ?????????
(38.0736°N, 23.2119°E)
Time: 09:07:41
(UTC+00:00)

OAO 3 Rocket - Visible Passes

Search period start: 24 July 2024 00:00
Search period end: 03 August 2024 00:00
Orbit: 622 x 670 km, 35.0° (Epoch: 23 July)

Date Brightness Start Highest point End Pass type
(mag) Time Alt. Az. Time Alt. Az. Time Alt. Az.
24 Jul 3.2 19:05:05 10° WSW 19:09:36 57° S 19:12:15 23° ESE visible
24 Jul 4.9 20:48:09 10° W 20:49:51 21° WSW 20:49:51 21° WSW visible
25 Jul 3.1 19:30:18 10° W 19:34:50 60° S 19:36:04 43° SE visible
25 Jul 5.8 21:13:33 10° W 21:13:38 10° W 21:13:38 10° W visible
26 Jul 3.3 18:12:30 10° WSW 18:17:01 57° S 18:21:33 10° E visible
26 Jul 3.3 19:55:36 10° W 19:59:47 50° SSW 19:59:47 50° SSW visible
27 Jul 3.2 18:37:43 10° W 18:42:15 59° S 18:45:53 16° ESE visible
27 Jul 4.5 20:20:58 10° W 20:23:29 27° WSW 20:23:29 27° WSW visible
28 Jul 3.3 19:03:00 10° W 19:07:27 51° S 19:09:34 28° SE visible
28 Jul 5.6 20:46:36 10° WSW 20:47:08 12° WSW 20:47:08 12° WSW visible
29 Jul 3.7 19:28:22 10° W 19:32:36 37° SSW 19:33:13 35° S visible
30 Jul 3.5 18:10:21 10° W 18:14:51 51° S 18:19:18 10° ESE visible
30 Jul 4.7 19:53:59 10° WSW 19:56:53 22° SW 19:56:53 22° SW visible
31 Jul 3.9 18:35:43 10° W 18:39:57 36° SSW 18:42:59 17° SE visible
31 Jul 5.7 20:20:32 10° WSW 20:20:33 10° WSW 20:20:33 10° WSW visible
01 Aug 4.6 19:01:20 10° WSW 19:04:58 23° SSW 19:06:41 19° S visible
02 Aug 5.3 19:27:54 10° WSW 19:29:51 12° SSW 19:30:25 12° SSW visible
